• în România
  • Lista ţărilor
  • Pe 7 zile
  • Temperatura apei
  • Hartă satelitară
  • Meteo pe hartă
  • Widget-uri
  • user-avatar
    Intrare

    Meteo pe oră la Zawtat

    Astăzi, 20 Septembrie, Joi

    Timp Temperatura Precipitaţii Vânt Presiune Umiditate
    00:00 +21°C° 0 mm 2 m/s 742 mmHg 68%
    01:00 +21°C° 0 mm 2 m/s 741 mmHg 69%
    02:00 +21°C° 0 mm 2 m/s 741 mmHg 69%
    03:00 +21°C° 0 mm 2 m/s 741 mmHg 69%
    04:00 +20°C° 0 mm 2 m/s 741 mmHg 69%
    05:00 +21°C° 0 mm 2 m/s 741 mmHg 68%
    06:00 +23°C° 0 mm 2 m/s 741 mmHg 66%
    07:00 +24°C° 0 mm 2 m/s 741 mmHg 61%
    08:00 +26°C° 0 mm 2 m/s 741 mmHg 56%
    09:00 +28°C° 0 mm 2 m/s 741 mmHg 50%
    10:00 +30°C° 0 mm 1 m/s 741 mmHg 45%
    11:00 +30°C° 0.1 mm 1 m/s 741 mmHg 45%
    12:00 +30°C° 0.1 mm 1 m/s 741 mmHg 45%
    13:00 +30°C° 0 mm 2 m/s 741 mmHg 48%
    14:00 +29°C° 0.1 mm 2 m/s 741 mmHg 50%
    15:00 +29°C° 0.1 mm 2 m/s 740 mmHg 52%
    16:00 +28°C° 0.1 mm 2 m/s 740 mmHg 54%
    17:00 +27°C° 0 mm 2 m/s 740 mmHg 59%
    18:00 +26°C° 0 mm 2 m/s 740 mmHg 63%
    19:00 +24°C° 0 mm 2 m/s 740 mmHg 68%
    20:00 +24°C° 0 mm 2 m/s 740 mmHg 68%
    21:00 +23°C° 0 mm 2 m/s 740 mmHg 69%
    22:00 +23°C° 0 mm 2 m/s 740 mmHg 70%
    23:00 +23°C° 0 mm 2 m/s 740 mmHg 70%

    Mâine, 21 Septembrie, Vineri

    Timp Temperatura Precipitaţii Vânt Presiune Umiditate
    00:00 +21°C° 0 mm 2 m/s 740 mmHg 71%
    01:00 +21°C° 0 mm 2 m/s 740 mmHg 71%
    02:00 +21°C° 0 mm 2 m/s 740 mmHg 70%
    03:00 +21°C° 0 mm 2 m/s 740 mmHg 70%
    04:00 +21°C° 0 mm 2 m/s 740 mmHg 69%
    05:00 +21°C° 0 mm 2 m/s 740 mmHg 68%
    06:00 +23°C° 0 mm 2 m/s 740 mmHg 66%
    07:00 +24°C° 0 mm 2 m/s 740 mmHg 64%
    08:00 +25°C° 0 mm 2 m/s 740 mmHg 59%
    09:00 +26°C° 0 mm 2 m/s 740 mmHg 53%
    10:00 +28°C° 0 mm 2 m/s 740 mmHg 48%
    11:00 +28°C° 0 mm 3 m/s 740 mmHg 47%
    12:00 +28°C° 0 mm 3 m/s 740 mmHg 46%
    13:00 +29°C° 0 mm 3 m/s 740 mmHg 44%
    14:00 +28°C° 0 mm 2 m/s 739 mmHg 47%
    15:00 +28°C° 0 mm 2 m/s 739 mmHg 50%
    16:00 +27°C° 0 mm 1 m/s 739 mmHg 53%
    17:00 +26°C° 0 mm 1 m/s 739 mmHg 58%
    18:00 +24°C° 0 mm 1 m/s 739 mmHg 63%
    19:00 +22°C° 0 mm 1 m/s 740 mmHg 68%
    20:00 +22°C° 0 mm 1 m/s 740 mmHg 68%
    21:00 +21°C° 0 mm 2 m/s 740 mmHg 68%
    22:00 +20°C° 0 mm 2 m/s 740 mmHg 67%
    23:00 +20°C° 0 mm 2 m/s 740 mmHg 66%

    Poimâine, 22 Septembrie, Sâmbătă

    Timp Temperatura Precipitaţii Vânt Presiune Umiditate
    00:00 +20°C° 0 mm 2 m/s 740 mmHg 65%
    01:00 +20°C° 0 mm 2 m/s 740 mmHg 64%
    02:00 +19°C° 0 mm 2 m/s 740 mmHg 63%
    03:00 +19°C° 0 mm 2 m/s 741 mmHg 62%
    04:00 +19°C° 0 mm 2 m/s 741 mmHg 61%
    05:00 +20°C° 0 mm 2 m/s 741 mmHg 60%
    06:00 +21°C° 0 mm 3 m/s 741 mmHg 59%
    07:00 +21°C° 0 mm 3 m/s 741 mmHg 58%
    08:00 +24°C° 0 mm 2 m/s 741 mmHg 54%
    09:00 +26°C° 0 mm 2 m/s 741 mmHg 51%
    10:00 +28°C° 0 mm 2 m/s 741 mmHg 48%
    11:00 +28°C° 0 mm 2 m/s 741 mmHg 49%
    12:00 +29°C° 0 mm 2 m/s 741 mmHg 50%
    13:00 +29°C° 0 mm 3 m/s 741 mmHg 51%
    14:00 +29°C° 0 mm 2 m/s 741 mmHg 55%
    15:00 +28°C° 0 mm 2 m/s 741 mmHg 59%
    16:00 +28°C° 0 mm 2 m/s 740 mmHg 63%
    17:00 +26°C° 0 mm 2 m/s 741 mmHg 70%
    18:00 +24°C° 0 mm 2 m/s 741 mmHg 78%
    19:00 +23°C° 0 mm 2 m/s 742 mmHg 85%
    20:00 +21°C° 0 mm 2 m/s 742 mmHg 84%
    21:00 +21°C° 0 mm 2 m/s 743 mmHg 83%
    22:00 +20°C° 0 mm 2 m/s 743 mmHg 81%
    23:00 +20°C° 0 mm 2 m/s 743 mmHg 80%

    23 Septembrie, Duminică

    Timp Temperatura Precipitaţii Vânt Presiune Umiditate
    00:00 +19°C° 0 mm 2 m/s 743 mmHg 79%
    01:00 +19°C° 0 mm 2 m/s 743 mmHg 78%
    02:00 +19°C° 0 mm 2 m/s 743 mmHg 78%
    03:00 +19°C° 0 mm 2 m/s 743 mmHg 77%
    04:00 +18°C° 0 mm 2 m/s 743 mmHg 77%
    05:00 +19°C° 0 mm 2 m/s 743 mmHg 75%
    06:00 +20°C° 0 mm 2 m/s 743 mmHg 73%
    07:00 +21°C° 0 mm 2 m/s 743 mmHg 71%
    08:00 +24°C° 0 mm 2 m/s 743 mmHg 65%
    09:00 +26°C° 0 mm 1 m/s 744 mmHg 59%
    10:00 +29°C° 0 mm 1 m/s 744 mmHg 52%
    11:00 +29°C° 0 mm 1 m/s 743 mmHg 51%
    12:00 +29°C° 0 mm 2 m/s 743 mmHg 50%
    13:00 +30°C° 0 mm 2 m/s 743 mmHg 49%
    14:00 +29°C° 0 mm 2 m/s 743 mmHg 51%
    15:00 +29°C° 0 mm 3 m/s 742 mmHg 54%
    16:00 +28°C° 0 mm 3 m/s 742 mmHg 57%
    17:00 +27°C° 0 mm 3 m/s 742 mmHg 64%
    18:00 +25°C° 0 mm 2 m/s 742 mmHg 71%
    19:00 +23°C° 0 mm 2 m/s 743 mmHg 78%
    20:00 +23°C° 0 mm 2 m/s 743 mmHg 78%
    21:00 +23°C° 0 mm 2 m/s 743 mmHg 77%
    22:00 +23°C° 0 mm 1 m/s 743 mmHg 77%
    23:00 +22°C° 0 mm 1 m/s 742 mmHg 77%

    24 Septembrie, Luni

    Timp Temperatura Precipitaţii Vânt Presiune Umiditate
    00:00 +21°C° 0 mm 2 m/s 742 mmHg 77%
    01:00 +21°C° 0 mm 2 m/s 741 mmHg 77%
    02:00 +21°C° 0 mm 2 m/s 741 mmHg 78%
    03:00 +20°C° 0 mm 2 m/s 741 mmHg 78%
    04:00 +20°C° 0 mm 2 m/s 740 mmHg 79%
    05:00 +21°C° 0 mm 2 m/s 740 mmHg 76%
    06:00 +21°C° 0 mm 3 m/s 740 mmHg 74%
    07:00 +22°C° 0 mm 3 m/s 739 mmHg 72%
    08:00 +25°C° 0 mm 4 m/s 739 mmHg 66%
    09:00 +26°C° 0 mm 4 m/s 740 mmHg 61%
    10:00 +28°C° 0 mm 4 m/s 740 mmHg 55%
    11:00 +28°C° 0 mm 4 m/s 740 mmHg 55%
    12:00 +29°C° 0 mm 4 m/s 739 mmHg 55%
    13:00 +29°C° 0 mm 4 m/s 739 mmHg 55%
    14:00 +29°C° 0 mm 3 m/s 739 mmHg 57%
    15:00 +28°C° 0 mm 3 m/s 739 mmHg 60%
    16:00 +28°C° 0 mm 3 m/s 740 mmHg 62%
    17:00 +26°C° 0.1 mm 3 m/s 740 mmHg 67%
    18:00 +24°C° 0.1 mm 2 m/s 740 mmHg 73%
    19:00 +21°C° 0.1 mm 2 m/s 741 mmHg 79%
    20:00 +20°C° 0 mm 3 m/s 741 mmHg 75%
    21:00 +19°C° 0 mm 4 m/s 741 mmHg 71%
    22:00 +17°C° 0 mm 5 m/s 742 mmHg 67%
    23:00 +17°C° 0 mm 6 m/s 742 mmHg 65%

    25 Septembrie, Marţi

    Timp Temperatura Precipitaţii Vânt Presiune Umiditate
    00:00 +16°C° 0 mm 6 m/s 742 mmHg 64%
    01:00 +15°C° 0 mm 6 m/s 742 mmHg 62%
    02:00 +15°C° 0 mm 6 m/s 742 mmHg 61%
    03:00 +15°C° 0 mm 6 m/s 742 mmHg 61%
    04:00 +14°C° 0 mm 6 m/s 742 mmHg 60%
    05:00 +14°C° 1.1 mm 7 m/s 743 mmHg 64%
    06:00 +12°C° 1.1 mm 7 m/s 743 mmHg 69%
    07:00 +11°C° 1.1 mm 7 m/s 743 mmHg 73%
    08:00 +11°C° 2.2 mm 7 m/s 744 mmHg 75%
    09:00 +10°C° 2.2 mm 7 m/s 744 mmHg 77%
    10:00 +10°C° 2.2 mm 7 m/s 744 mmHg 79%
    11:00 +11°C° 0.1 mm 6 m/s 744 mmHg 74%
    12:00 +13°C° 0.1 mm 6 m/s 744 mmHg 68%
    13:00 +14°C° 0.1 mm 5 m/s 744 mmHg 62%
    14:00 +14°C° 0 mm 5 m/s 744 mmHg 59%
    15:00 +14°C° 0 mm 5 m/s 744 mmHg 55%
    16:00 +15°C° 0 mm 5 m/s 744 mmHg 51%
    17:00 +14°C° 0 mm 6 m/s 744 mmHg 52%
    18:00 +11°C° 0 mm 7 m/s 745 mmHg 52%
    19:00 +10°C° 0 mm 8 m/s 745 mmHg 53%
    20:00 +10°C° 0 mm 9 m/s 745 mmHg 50%
    21:00 +9°C° 0 mm 10 m/s 746 mmHg 48%
    22:00 +9°C° 0 mm 11 m/s 746 mmHg 46%
    23:00 +9°C° 0 mm 10 m/s 746 mmHg 46%
    Arată mai mult